Location: Newark
(46.6500°N, 7.5500°E)
Time: 19:09:31
(UTC+00:00)

ISS - Visible Passes

Search period start: 19 February 2020 00:00
Search period end: 29 February 2020 00:00
Orbit: 416 x 422 km, 51.6° (Epoch: 20 February)

Date Brightness Start Highest point End Pass type
(mag) Time Alt. Az. Time Alt. Az. Time Alt. Az.
20 Feb -0.8 05:42:19 10° S 05:44:26 16° SE 05:46:33 10° E visible
22 Feb -2.2 05:42:30 10° SSW 05:45:38 37° SE 05:48:48 10° ENE visible
23 Feb -1.6 04:55:20 10° SSW 04:58:06 24° SE 05:00:55 10° E visible
24 Feb -1.2 04:09:39 14° SSE 04:10:38 16° SE 04:12:44 10° E visible
24 Feb -3.7 05:43:38 10° WSW 05:47:00 86° SSE 05:50:24 10° ENE visible
25 Feb -3.3 04:57:15 20° SW 04:59:22 57° SSE 05:02:42 10° ENE visible
26 Feb -2.6 04:11:44 37° SE 04:11:45 37° SE 04:14:54 10° ENE visible
26 Feb -3.4 05:45:12 10° W 05:48:30 51° NNW 05:51:49 10° ENE visible
27 Feb -0.7 03:26:06 15° E 03:26:06 15° E 03:26:58 10° E visible
27 Feb -3.7 04:59:03 26° W 05:00:45 68° NNW 05:04:08 10° ENE visible
28 Feb -3.6 04:13:19 73° ENE 04:13:19 73° ENE 04:16:25 10° ENE visible
